Location: Mountain Grove
(34.0887°N, 86.6172°W)
Time: 00:51:49
(UTC+00:00)

Cosmos 1371 Rocket - Pass Details

Date: 14 July 2020
Orbit: 753 x 790 km, 74.0° (Epoch: 12 August)

Event Time Altitude Azimuth Distance (km) Brightness Sun altitude
Rises 03:56:26 0° 337° (NNW) 3,258 8.5 -27.8°
Reaches altitude 10° 03:58:51 10° 333° (NNW) 2,333 7.5 -28.1°
Enters shadow 04:03:52 55° 263° (W) 940 4.4 -28.6°
